Wind_Speed
9 12 10 5 2 5 2 3 3 5 6 3 3 4 8 6 2 3 13 13 15 14 13 16 17 16 15 16 16 17 18 16 18 17 17 18 16 15 15 14 13 12 11 11 10 9 9 9 8
11 9 1 1 3 3 2 3 3 6 7 11 11 9 6 4 4 8 11 16 15 15 14 15 15 15 15 16 15 15 15 16 15 14 15 16 16 14 13 12 11 10 10 11 9 8 7 8 7
11 1 1 1 2 4 4 7 6 13 16 4 6 7 4 4 7 8 13 19 16 15 14 15 14 15 14 14 15 14 14 13 15 13 13 13 12 13 12 11 10 9 8 7 7 6 6 5 3
5 4 1 2 4 1 5 6 14 12 7 7 12 10 5 4 6 8 20 19 19 17 15 15 14 15 14 14 13 14 12 13 13 12 13 12 12 12 12 12 9 6 6 5 4 3 3 3 2
1 2 2 3 5 4 5 12 11 4 4 7 4 5 4 4 14 24 19 18 20 17 15 13 14 14 13 12 12 14 14 12 12 11 11 11 11 10 9 8 5 4 3 2 2 2 3 3 3
1 1 3 3 6 5 3 5 4 4 6 7 8 9 3 14 21 18 19 17 17 17 15 14 13 13 13 11 12 11 12 11 11 9 8 8 7 7 6 5 3 1 2 3 3 4 6 7 6
2 2 3 5 6 5 4 3 4 7 8 5 11 6 5 10 18 20 17 17 17 15 14 14 13 12 11 9 10 10 10 9 9 8 7 7 6 3 3 2 2 3 4 6 6 7 8 9 9
3 3 4 4 6 3 7 3 6 5 4 10 7 6 8 10 22 21 17 18 17 16 15 14 13 12 11 10 9 9 9 7 8 7 6 5 4 4 3 2 4 5 5 7 8 8 9 9 11
4 3 3 5 6 5 7 5 5 7 8 3 3 5 17 25 23 19 18 17 18 16 16 14 12 10 9 9 9 8 8 8 7 5 4 2 1 1 1 4 4 6 7 8 9 10 11 13 10
4 4 7 8 7 9 13 7 8 6 3 4 8 16 27 24 20 17 15 16 19 17 15 13 11 10 10 10 10 9 8 6 4 3 1 2 2 4 7 7 5 6 8 7 8 10 10 15 11
4 5 5 8 8 15 13 10 4 11 3 5 11 19 19 20 16 15 14 19 20 16 15 12 10 12 11 10 9 6 4 5 5 5 3 3 3 3 5 7 6 7 7 7 9 11 11 10 8
3 5 4 9 11 11 10 5 8 2 2 9 15 20 17 13 14 15 17 18 17 15 15 13 12 10 8 6 5 4 3 4 6 4 2 0 2 4 6 7 8 8 8 13 9 11 9 12 11
4 4 4 16 13 11 11 8 6 6 9 14 17 15 13 10 12 15 19 16 17 17 16 13 9 9 8 5 5 8 4 4 3 2 0 2 5 7 9 10 11 12 11 8 9 8 9 8 10
3 10 11 15 13 12 11 6 4 5 11 13 13 11 9 9 13 14 17 17 17 16 16 14 10 10 8 5 8 7 4 2 3 4 2 3 5 7 8 10 10 12 9 7 9 9 10 13 11
5 10 10 8 6 6 14 5 4 11 11 12 11 10 9 9 13 16 20 19 19 19 17 17 12 14 10 6 10 7 2 1 1 2 5 6 6 8 10 9 11 11 9 10 9 10 9 11 12
5 5 4 5 7 7 0 0 7 12 12 10 12 10 11 10 17 20 23 24 24 21 19 18 15 14 13 11 10 7 3 1 1 4 6 10 7 8 10 8 9 11 9 9 9 9 11 10 12
6 5 2 4 9 7 2 3 12 14 14 14 13 12 12 11 14 20 26 27 29 27 22 21 18 16 15 12 10 10 6 4 4 6 7 10 6 8 9 8 8 9 9 8 8 10 10 12 14
5 4 3 4 6 4 5 5 15 15 12 12 12 13 14 13 15 21 26 28 28 31 25 22 23 19 17 14 12 11 11 8 8 9 9 10 11 11 10 9 10 11 10 10 8 8 7 8 10
6 5 6 3 2 4 5 9 18 17 13 13 12 14 13 13 19 22 25 27 26 31 31 27 25 24 21 18 16 14 15 12 11 10 9 11 10 10 12 11 10 9 9 10 9 11 9 9 11
5 4 5 2 6 4 6 8 16 18 19 16 15 13 14 11 10 16 22 24 25 29 34 32 28 28 25 22 19 17 14 12 13 12 11 11 11 12 14 13 10 9 11 10 9 11 11 12 11
4 5 3 3 5 4 6 1 9 12 11 13 14 13 13 13 12 13 19 24 26 30 33 33 30 30 28 24 22 18 15 15 14 14 14 14 15 15 15 13 12 10 12 10 10 10 11 11 13
8 11 8 8 4 3 4 4 7 13 18 15 17 16 15 14 13 13 20 22 27 32 34 33 32 32 32 29 28 25 23 21 21 19 18 17 14 14 15 13 13 10 8 11 14 10 11 9 9
10 8 10 5 5 4 3 1 5 15 16 19 19 19 17 16 15 16 21 27 30 30 35 35 35 35 36 33 34 31 28 26 23 21 21 19 15 14 13 12 14 12 13 10 9 11 10 9 7
6 2 3 5 4 2 6 7 5 8 20 19 20 20 19 17 17 16 25 25 26 29 31 36 36 36 38 36 35 36 33 30 27 24 21 19 16 15 12 10 11 10 12 9 9 8 9 7 6
4 7 3 4 1 7 6 6 14 10 10 18 21 21 20 17 16 15 14 21 24 28 31 34 38 40 40 38 38 38 36 34 31 28 24 21 20 20 14 7 7 9 8 6 5 5 5 5 5
8 9 6 6 3 5 4 6 10 19 17 19 19 21 19 17 15 17 19 26 28 29 31 34 33 36 40 40 41 42 40 37 33 30 27 25 20 15 11 14 11 10 7 2 3 6 7 7 7
5 5 10 2 5 3 5 7 6 6 14 14 15 13 16 17 17 19 20 27 29 29 34 34 32 37 40 43 40 41 41 37 35 30 26 23 20 19 18 12 5 3 2 2 3 5 7 6 7
10 7 3 2 6 7 5 5 5 3 11 13 14 17 17 16 17 17 18 27 30 33 31 32 37 41 41 41 41 40 39 36 32 27 23 20 18 15 9 5 5 3 3 4 4 5 5 6 7
4 3 4 5 6 6 2 6 6 10 12 18 18 18 17 17 18 17 17 27 31 29 31 36 37 39 40 41 40 37 35 32 28 24 20 15 10 7 8 8 6 6 5 4 3 5 7 7 8
10 10 8 5 5 3 4 7 4 10 14 14 14 15 18 17 18 17 17 22 24 27 29 35 37 39 43 40 37 35 32 26 23 22 19 14 12 12 11 10 9 7 5 4 5 6 6 7 6
Wind_Direction
152 150 146 159 111 81 135 236 345 185 157 339 69 122 110 40 37 160 141 143 146 140 126 118 114 108 105 101 98 96 97 95 97 98 102 109 108 108 107 106 109 109 109 107 108 107 109 106 112
162 137 198 188 78 85 186 184 207 151 116 109 81 98 60 75 61 117 124 145 146 145 134 121 121 113 105 103 103 100 102 100 104 104 111 110 110 109 111 112 115 112 107 105 101 98 95 105 106
152 97 58 107 123 163 170 195 201 135 168 127 117 65 76 86 88 129 148 145 143 146 142 130 124 114 111 112 111 106 107 105 108 106 108 113 117 117 118 116 113 107 101 96 95 97 97 98 108
148 25 18 100 211 179 160 172 138 139 88 62 113 87 88 40 124 148 147 143 145 144 141 132 123 118 121 119 116 120 120 116 116 114 118 113 113 113 116 119 118 114 105 94 84 57 63 67 51
124 106 358 49 27 73 88 142 157 108 91 128 132 110 73 62 127 142 145 144 146 143 137 136 128 124 125 121 126 119 116 119 114 113 117 115 119 118 117 119 114 108 102 90 65 346 342 359 342
170 241 55 104 114 83 84 112 106 89 94 124 95 105 90 125 131 145 144 143 145 142 139 134 129 132 134 126 127 120 122 121 117 116 113 114 112 119 113 111 106 87 18 336 335 317 316 319 318
191 124 174 140 137 151 162 141 118 127 126 88 128 104 106 129 145 141 142 143 144 138 136 134 136 138 133 132 134 124 121 113 109 110 107 106 108 108 90 70 32 340 325 308 304 304 307 312 320
198 106 89 138 176 146 152 112 123 85 78 106 129 162 155 142 150 145 141 141 140 138 138 146 146 146 137 128 130 135 124 116 110 114 113 106 99 69 45 15 7 349 328 315 308 304 307 315 325
159 72 166 171 165 148 159 143 154 89 133 106 127 115 122 144 149 143 142 145 142 149 151 152 149 147 137 136 130 129 114 108 108 114 100 86 74 31 349 11 2 339 323 312 312 320 321 323 324
146 141 193 167 152 162 155 156 131 124 125 53 84 101 125 143 151 145 147 147 158 160 156 154 147 140 144 143 132 127 124 117 116 112 136 271 340 323 311 307 312 301 281 291 301 309 323 315 304
175 191 165 156 142 144 142 134 89 127 224 194 164 142 140 146 150 148 155 164 165 160 157 154 150 150 155 149 132 132 142 142 122 112 81 58 9 340 336 341 341 310 302 301 299 306 309 304 325
105 59 121 139 131 138 143 83 106 351 318 140 148 141 142 151 155 155 168 170 169 163 159 154 163 169 161 160 162 191 194 148 145 123 102 327 343 2 3 352 338 317 318 318 302 308 309 315 317
87 110 54 135 131 126 100 88 88 73 94 112 132 136 150 149 154 164 176 174 169 166 161 166 174 173 175 176 152 127 165 143 146 180 318 6 2 357 11 357 342 337 314 305 336 339 330 322 325
65 94 97 131 120 122 111 121 91 120 123 122 138 143 159 162 163 165 183 182 179 171 172 181 184 177 180 196 201 177 170 185 257 259 333 10 358 348 345 349 347 349 352 331 320 327 318 330 328
102 86 62 103 112 118 120 47 100 146 142 143 154 163 174 182 179 179 192 192 187 184 184 191 203 197 199 189 159 171 195 338 48 345 311 318 308 323 334 350 359 349 336 335 324 319 320 322 325
86 48 117 219 159 175 111 224 158 162 165 172 178 186 191 195 197 197 201 199 198 194 194 195 198 197 201 200 206 206 214 181 326 334 332 329 279 303 311 332 349 357 348 347 337 333 323 319 327
9 154 180 166 197 162 99 146 185 178 186 185 192 193 198 202 201 200 208 208 205 203 201 200 203 208 210 210 215 216 231 252 264 298 307 341 295 294 297 315 331 343 358 352 334 341 334 318 318
179 135 264 213 208 120 129 164 173 185 193 194 199 202 202 201 204 198 206 216 215 209 205 208 210 217 220 224 226 227 238 253 254 261 293 311 302 288 303 321 331 334 332 342 334 331 341 333 322
190 143 174 223 187 124 177 157 182 189 199 203 214 200 205 205 205 202 204 212 217 213 212 217 216 219 221 226 225 231 240 256 251 263 292 306 317 271 288 314 325 329 327 335 327 329 321 337 347
221 164 204 237 153 100 175 191 185 190 203 204 211 212 211 200 191 188 196 201 208 212 215 215 223 223 222 222 222 228 240 249 257 261 271 285 301 291 290 293 306 315 315 320 338 340 329 323 344
228 186 165 236 126 51 122 70 189 214 206 213 217 216 223 210 189 189 190 197 203 206 210 214 220 220 222 222 225 228 238 248 250 254 269 282 296 298 314 278 286 303 310 323 333 342 328 325 328
203 200 176 154 91 205 170 270 211 198 209 209 214 210 216 213 206 193 192 195 200 208 211 214 218 223 223 226 227 230 232 236 246 262 274 286 292 304 306 294 275 284 318 308 318 327 332 326 339
229 167 180 138 128 128 199 355 272 178 208 213 211 213 209 211 206 200 199 198 203 207 212 215 220 225 223 229 228 230 235 244 254 262 271 280 284 304 302 286 277 277 316 323 326 327 349 355 360
224 190 108 57 94 339 190 152 251 185 210 207 212 208 211 206 206 207 204 201 203 206 211 216 218 221 223 228 228 231 236 242 249 258 263 270 278 285 306 295 283 292 311 320 336 357 355 10 16
158 76 5 355 69 228 143 164 234 216 201 199 201 204 203 202 201 202 196 199 203 204 208 213 219 222 224 226 230 232 237 245 251 256 259 265 281 288 292 291 295 297 304 326 350 357 14 39 36
214 149 162 195 197 264 110 222 250 219 202 194 198 198 191 195 196 197 198 199 202 205 206 213 216 221 225 229 233 235 241 246 251 256 260 268 274 282 294 302 300 309 307 325 26 65 62 74 58
209 182 204 115 43 294 211 276 295 279 177 168 187 180 191 195 193 196 198 200 201 205 207 208 210 222 226 230 233 235 239 244 250 257 262 263 265 280 296 297 294 305 309 17 65 71 59 30 24
150 173 89 5 203 243 284 279 249 148 163 164 180 189 192 195 198 198 199 201 203 207 208 207 214 222 226 231 232 236 239 242 247 254 257 263 272 276 259 239 251 242 125 102 65 50 36 22 38
148 181 85 128 137 183 182 269 224 195 188 180 189 193 190 188 197 197 200 203 203 202 202 207 212 218 223 229 230 232 236 239 242 244 247 251 243 247 225 215 189 147 121 100 59 32 25 38 59
183 188 160 152 242 250 153 262 213 192 202 180 194 193 194 195 198 197 199 198 198 199 199 204 209 214 222 225 225 227 231 233 233 234 236 237 238 214 202 192 171 141 115 65 33 21 27 52 62
Height
769 771 773 775 795 797 815 806 797 792 788 784 780 783 796 803 806 821 810 813 816 819 821 821 821 821 821 821 821 821 822 823 824 824 824 824 825 827 827 827 828 828 828 829 830 830 829 830 831
769 772 773 775 797 814 812 791 790 785 787 782 785 791 797 809 804 809 811 814 817 821 822 822 823 823 823 823 824 824 825 825 826 827 827 826 828 829 829 829 829 830 830 831 832 833 833 833 833
768 770 776 783 795 811 805 786 780 781 779 781 792 792 798 808 809 810 812 815 819 823 824 824 824 825 826 825 824 825 827 827 827 828 829 829 829 830 831 831 832 833 833 833 834 834 835 835 835
769 771 776 790 797 781 783 779 776 780 780 781 787 802 802 807 809 811 815 818 821 824 826 826 827 827 827 827 827 826 827 828 829 829 830 831 832 832 833 833 833 834 834 835 834 835 836 837 837
767 773 786 789 790 779 776 772 774 783 783 787 785 805 806 809 810 814 817 820 822 825 827 828 828 828 828 828 828 828 829 830 832 833 833 834 834 834 835 836 837 837 837 837 837 836 837 838 838
772 772 793 805 795 785 781 776 778 786 787 790 794 799 810 811 812 816 820 822 825 826 828 829 830 829 829 830 830 831 831 832 833 835 836 837 837 837 837 838 838 839 839 838 837 837 838 838 839
773 780 787 792 795 790 786 777 782 786 790 793 789 806 810 813 815 818 822 824 826 829 830 830 830 830 831 832 832 833 833 835 836 837 838 839 838 838 839 839 839 840 839 838 837 837 837 838 840
764 773 783 785 793 794 782 780 779 784 793 788 790 806 810 812 817 820 823 826 828 829 830 830 830 831 832 833 834 834 834 836 837 837 838 838 838 839 839 839 840 839 838 838 837 836 836 837 838
753 785 794 787 788 787 777 784 778 782 789 788 792 796 802 813 818 821 825 827 828 829 829 830 831 834 834 834 835 836 837 838 838 838 840 840 840 840 839 839 840 839 838 837 835 834 835 834 836
765 788 778 761 768 776 776 780 783 788 793 797 799 801 807 813 819 821 825 827 827 829 830 831 833 835 835 835 835 838 838 839 839 840 841 841 840 840 839 839 838 839 837 835 834 833 833 833 834
760 775 759 760 760 766 777 783 780 791 801 794 800 802 809 815 820 822 826 826 827 830 831 832 834 834 836 836 838 839 839 840 841 840 840 841 841 840 840 839 838 837 836 835 834 834 833 834 833
761 753 751 758 761 770 779 778 788 787 790 786 797 801 808 815 819 823 826 827 829 831 832 833 834 836 838 838 839 840 841 841 841 841 841 842 841 842 840 838 836 836 836 834 833 833 833 833 831
760 760 756 756 763 772 774 786 791 797 793 793 799 805 811 815 819 824 826 827 829 831 832 834 836 837 838 839 840 841 841 843 842 842 842 841 841 841 840 837 836 834 834 833 833 832 831 830 829
752 759 764 765 768 775 786 792 790 802 798 800 803 808 812 815 819 823 825 827 829 832 833 835 836 837 838 839 840 842 843 843 842 842 842 842 841 840 840 838 837 835 833 833 832 832 831 830 829
760 776 776 781 776 785 781 801 804 799 799 803 806 809 813 815 818 820 823 826 828 830 833 834 835 837 839 839 841 842 843 843 842 842 842 842 841 840 839 838 837 836 834 833 833 832 831 830 828
776 783 804 782 778 781 783 817 804 799 803 808 808 809 811 812 814 818 821 823 826 829 831 833 835 836 838 840 841 842 842 842 842 842 841 840 840 840 840 838 838 836 834 833 832 832 830 830 828
791 806 795 788 771 779 787 813 801 798 801 805 806 805 807 810 813 816 819 821 824 826 829 832 834 835 837 839 840 841 841 841 842 841 841 841 840 840 839 838 838 837 835 833 832 832 830 829 827
802 800 797 794 778 779 793 801 798 797 801 803 803 803 803 805 808 812 815 818 821 824 828 831 833 834 836 838 838 839 840 841 841 841 841 841 840 840 839 838 837 836 835 834 832 830 828 826 825
773 782 790 782 769 783 793 799 797 795 800 803 800 800 800 801 803 809 812 815 818 822 825 828 830 832 834 835 836 837 838 839 840 839 840 840 838 838 838 838 837 835 834 832 830 829 827 824 823
770 778 790 778 769 780 794 796 794 793 792 797 797 798 797 799 802 805 809 812 814 817 821 825 827 830 832 833 834 835 836 838 838 838 839 839 838 837 837 837 837 836 835 833 830 828 827 825 824
774 784 785 784 775 779 789 804 802 793 792 793 791 792 794 796 799 801 805 808 811 813 816 820 823 826 829 831 833 834 835 835 836 836 836 837 837 836 834 834 835 835 833 832 830 828 827 825 824
792 760 768 778 791 812 781 825 804 791 791 789 787 787 789 791 793 796 799 803 806 808 812 816 820 823 825 828 830 831 831 832 833 834 835 835 835 834 833 832 832 832 831 830 828 827 825 824 822
763 750 762 771 791 794 796 813 793 781 791 783 779 778 780 783 786 789 793 796 800 804 807 812 816 819 822 824 826 828 829 830 831 832 833 833 833 833 832 831 831 832 831 830 827 826 824 823 822
732 749 760 782 799 826 791 804 794 789 764 767 766 768 770 775 779 783 787 792 796 800 803 806 810 813 817 819 821 823 825 826 828 830 831 831 832 832 832 831 831 831 829 828 827 825 823 823 822
743 777 816 823 829 825 790 801 766 750 742 744 753 757 761 765 772 777 783 787 790 793 797 800 804 807 811 814 816 818 821 823 825 826 828 830 831 831 832 832 831 830 828 827 825 824 823 823 822
757 774 811 832 831 809 787 802 760 719 725 731 737 742 752 759 763 769 774 778 782 786 791 794 798 802 806 809 811 813 816 818 821 823 826 827 829 829 831 830 830 828 827 826 825 825 824 824 823
757 777 750 787 802 814 796 764 733 722 725 731 738 744 749 752 756 761 767 771 775 780 783 787 792 796 799 802 806 808 812 815 817 820 824 825 827 828 829 829 829 827 826 826 826 825 825 825 824
739 740 782 802 817 819 794 779 766 742 737 734 740 740 742 745 750 755 759 763 768 772 778 783 786 788 792 796 800 803 807 811 815 819 821 823 825 826 827 827 826 825 825 825 827 826 826 825 823
746 756 767 775 795 805 808 783 736 735 727 727 729 729 733 738 742 747 752 756 760 766 771 774 779 782 785 788 793 799 803 808 813 816 819 822 824 825 824 824 824 825 825 825 825 826 825 824 823
718 739 749 784 788 796 786 776 711 717 714 716 723 725 726 729 734 739 745 752 757 760 764 766 770 773 776 782 789 794 799 805 809 812 816 820 821 822 823 823 823 824 825 826 825 824 823 822 821